ImprimablePdf
Antwerp, 25/04/2010, BEL - DVV Antwerp Marathon & 10 Miles
Liste des rapports > 10 Miles - Classement + Video
Recherche: Page: [1] 2 3 4 5
893 Entrées
 
Les réclamations ne sont plus acceptées, les résultats sont considérés comme définitifs.
RangNrNomAgeIOCTempsTkmMoy.ScrLocalité
1.49VERCAUTEREN Herman52BEL58:173:38 16.5731KRUIBEKE
2.272ROSIERS Marc50BEL1:00:333:46 15.9554SINT-KATELIJNE-WAVER
3.148VANKRUNKELSVEN Patrik53BEL1:01:533:51 15.6194LAAKDAL
4.48DIELS Gaston53BEL1:02:433:54 15.40118RAVELS
5.8657ROMERI Fiorenzo52ITA1:03:003:55 15.33127ALBOSAGGIA SONDRIO
6.14810BONATO Patrick50BEL1:03:223:57 15.24139
7.909VLEMINCKX Benny52BEL1:04:003:59 15.09159LONDERZEEL
8.478LAMBRECHTS Ludwig50BEL1:04:234:01 15.00178BEERZEL
9.18364VAN LOOCK Luc51BEL1:05:004:03 14.86201NIJLEN
10.259GOEVAERTS Dirk53BEL1:05:214:04 14.78221SCHELLE
11.893DELBAERE Marc51BEL1:05:274:04 14.76224BORGERHOUT (ANTWERPEN)
12.14500SLAETS Kris52BEL1:05:294:05 14.75226WILRIJK (ANTWERPEN)
13.18130DELBAERE Rene52BEL1:05:354:05 14.73228BERCHEM (ANTWERPEN)
14.350BRAEM Kris51BEL1:05:424:05 14.70231MORTSEL
15.2525GYSEN Wim50BEL1:06:114:07 14.59265BERCHEM (ANTWERPEN)
16.479VERLINDEN Luc51BEL1:06:204:08 14.56274ITEGEM
17.396VAN KEIRSBILCK Marnix50BEL1:06:544:10 14.44297DILBEEK
18.656VAN HOVE Frederik52BEL1:07:154:11 14.36323ZWIJNDRECHT
19.3001CLAES Herman52BEL1:07:444:13 14.26362BORGERHOUT (ANTWERPEN)
20.14248GOLVERS Aime52BEL1:07:534:14 14.23374BONHEIDEN
21.7018GEEROMS Jan51BEL1:08:564:17 14.01443ROOSDAAL
22.516AARTS Johannes53BEL1:09:064:18 13.98454ESSEN
23.803VAN DEN WYNGAERT Leo51BEL1:09:074:18 13.97456PULLE
24.62VAN DEN BOGAERT Fonne50BEL1:09:104:18 13.97463STABROEK
25.441DE GROEP Jean-Pierre52BEL1:09:174:19 13.94476TEMSE
26.19020NYS Freddy52BEL1:09:474:21 13.84514BEVEREN-WAAS
27.8764HERREMAN Chris53BEL1:09:504:21 13.83520ZOTTEGEM
28.127MERTENS Gunter53BEL1:09:564:21 13.81526BELSELE
29.119RASSAERTS Rudi50BEL1:10:204:23 13.73564WESPELAAR
30.132BOLSSENS Patrick50BEL1:10:264:23 13.71576KIELDRECHT
31.219VAN AELST Paul54BEL1:10:364:24 13.68586MECHELEN
32.2715DESCHUYTERE Herman52BEL1:10:454:24 13.65605ANTWERPEN 2
33.12766MISTIAEN Albert52BEL1:11:074:26 13.58641MORTSEL
34.14364PIESSENS Paul53BEL1:11:134:26 13.56656DE KLINGE
35.4203VANLANGENDONCK Nelle51BEL1:11:204:26 13.54664ZAVENTEM
36.9055ROMBOUTS Luc53BEL1:11:294:27 13.51680MORTSEL
37.821MINGEROET Luc51BEL1:11:404:28 13.48702SINT-NIKLAAS
38.18147VETS Paul52BEL1:11:584:29 13.42735BROECHEM
39.278DE MAEYER Luc51BEL1:12:014:29 13.41737WILLEBROEK
40.1925MEEUSEN Julien53BEL1:12:014:29 13.41741BOOM
41.4509PAELINCK Marcel50BEL1:12:054:29 13.40747STEKENE
42.858ROBINET Philip52BEL1:12:114:30 13.38758BOECHOUT
43.8855LEPLAE Bart50BEL1:12:204:30 13.35769RIJKEVORSEL
44.8816VAN AEL Bruno54BEL1:12:214:30 13.35771GRIMBERGEN
45.498VAN RANST Luc52BEL1:12:474:32 13.27827SCHOTEN
46.503BALEMANS Patrick53BEL1:12:474:32 13.27830BORGERHOUT
47.19037DE PAUW Francis50BEL1:12:474:32 13.27831SINT-NIKLAAS
48.715SENAEVE Walter50BEL1:12:484:32 13.27833ST.NIKLAAS
49.769BACHOT Jan54BEL1:13:014:33 13.23859BORGERHOUT
50.6726ROEYMANS Danny50BEL1:13:024:33 13.22861ARENDONK
51.19525HEYRMAN Peter53BEL1:13:064:33 13.21870BRASSCHAAT
52.10652MET Christian51BEL1:13:084:33 13.21873WOMMELGEM
53.14375VERGAUWE Philippe50BEL1:13:214:34 13.17915ZWEVEGEM
54.9163DAMS Hugo53BEL1:13:244:34 13.16921GEEL
55.840DE COMMINES Luc53BEL1:13:564:36 13.06995AALST
56.792KALB Don51BEL1:14:054:37 13.041030ANTWERPEN 1
57.445VAN LEEMPUT Frank51BEL1:14:134:37 13.011052BORNEM
58.11178ABDELHADJI Najib52BEL1:14:274:38 12.971088MACHELEN
59.7155ROOSE Wieland51BEL1:14:454:39 12.921137SCHOTEN
60.5635MOOREN Cees51BEL1:14:514:39 12.901150BAARLE-HERTOG
61.14356JANSSENS Marc50BEL1:14:534:40 12.901159BOECHOUT
62.5251MARTENS Eduard53BEL1:14:554:40 12.891163BILZEN
63.8638VAN DE POL Eddy52BEL1:14:564:40 12.891168GROBBENDONK
64.12618VERSWIJVER David51BEL1:15:124:41 12.841206ANTWERPEN 1
65.11104VRINS Luc50BEL1:15:134:41 12.841211LOENHOUT
66.15286VAN HEDDEGEM Koen51BEL1:15:164:41 12.831217
67.6313PINGNET Ludo53BEL1:15:194:41 12.821224DEURNE (ANTWERPEN)
68.12608DUAH Ben52BEL1:15:224:41 12.811230HAM
69.2564DANGREAU Bernard54BEL1:15:304:42 12.791251DRONGEN
70.10232HOLSTERS Gaston52BEL1:15:344:42 12.781262WOMMELGEM
71.705BRUYNEN Jozef52BEL1:15:424:43 12.761284WUUSTWEZEL
72.389VERACHTEN Paul54BEL1:15:444:43 12.751297DESSEL
73.354NUYTS Jef54BEL1:15:454:43 12.751301BRASSCHAAT
74.4331KROLS Jef51BEL1:15:504:43 12.741312OUD-TURNHOUT
75.8369WILLEMS Francis52BEL1:15:504:43 12.741314WECHELDERZANDE
76.18424BORTIER Bert50BEL1:16:114:44 12.681374BOECHOUT
77.6832RIESSAUW Guido53BEL1:16:204:45 12.651408ANTWERPEN
78.4420PLAETINCK Cris50BEL1:16:214:45 12.651411LOKEREN
79.11201RIETMAECKER Patrick52BEL1:16:214:45 12.651416SINT-KRUIS (BRUGGE)
80.13776MOENS Brijns50BEL1:16:244:45 12.641425ESSEN
81.914ANDRIES Danny52BEL1:16:474:47 12.581523BEVEREN-WAAS
82.694AUGUSTEYNS Rudy50BEL1:16:484:47 12.581525HEMIKSEM
83.5991RIVIERE Eric50BEL1:17:014:48 12.541571AARTSELAAR
84.10060MAHIEU Rudi53BEL1:17:104:48 12.511596MORTSEL
85.99KUSSENEERS Luc53BEL1:17:114:48 12.511597RUMST
86.14878HAENTJENS Kris54BEL1:17:114:48 12.511598
87.8918ANNAERT Marc53BEL1:17:154:48 12.501612SINT-JOB-IN-'T-GOOR
88.6660JOOSSENS Luc51BEL1:17:164:48 12.501616KAPELLEN (ANTW.)
89.11558BEECKMANS Eddy52BEL1:17:224:49 12.481630EKEREN
90.71BURM Pieter51BEL1:17:254:49 12.471642WIJNEGEM
91.12159WYN Jan50BEL1:17:274:49 12.471643BERCHEM (ANTWERPEN)
92.7623SAS Patrick50BEL1:17:344:50 12.451673NIEL
93.10695LARBI Abdnasser52BEL1:17:384:50 12.441694BRUXELLES
94.8566DEFILLET Erik54BEL1:17:424:50 12.431703LINT
95.8981VAN BAELEN Andre54BEL1:17:464:50 12.421716GEEL
96.827VAN DER VALK Hans51BEL1:17:464:50 12.421717KEERBERGEN
97.15276VANDEPERRE Danny51BEL1:17:584:51 12.391768
98.4230LENAERTS Marc54BEL1:17:594:51 12.391770HERENTALS
99.9298VERCAMMEN Charles50BEL1:18:034:51 12.371779RAVELS
100.16652AGUILAR RODRIGUEZ Gerardo52BEL1:18:044:51 12.371784
101.6413TONDEUR Emmanuel51BEL1:18:064:52 12.371791OVERIJSE
102.2812RYPENS Eddy54BEL1:18:064:52 12.371793LINT
103.5461VETS Eddy52BEL1:18:104:52 12.361812PUTTE
104.6590AREKENS Joris51BEL1:18:164:52 12.341831ANTWERPEN
105.18796VAN HAVERE Boudewijn50BEL1:18:214:53 12.331850BELSELE
106.15137MEESCHAERT Alain53BEL1:18:224:53 12.321856
107.18505DE COCK Dirk50BEL1:18:254:53 12.321866OUDENAARDE
108.2796WELLENS Nicolas50BEL1:18:274:53 12.311877ZOERSEL
109.5854DECKERS Lieven53BEL1:18:284:53 12.311880ESSEN
110.8321JOCHEMS Jack50BEL1:18:394:54 12.281922MINDERHOUT
111.138ROVITUSO Antonio50BEL1:18:414:54 12.271930MERKSEM (ANTWERPEN)
112.10212BRYSSINCK Antoin52BEL1:18:434:54 12.271939ANTWERPEN
113.4197WALRAVENS Alain52BEL1:18:444:54 12.271944GRIMBERGEN
114.2582SCHAILLEE Dirk51BEL1:18:454:54 12.261947SINT-AMANDSBERG
115.386LEFLOT Danny51BEL1:18:564:55 12.231997WOMMELGEM
116.13773VLEGELS Jan52BEL1:18:594:55 12.232008BEVEREN-WAAS
117.8602BAKELANTS Marc52BEL1:19:044:55 12.212036GEEL
118.577MAGNUS Jan53BEL1:19:054:55 12.212039BORSBEEK (ANTW.)
119.8939BEVERS Gui52BEL1:19:054:55 12.212040WESTMALLE
120.17003VERMEULEN Francois52BEL1:19:064:55 12.212045
121.13655LI+GEOIS Dirk50BEL1:19:074:55 12.212049BRASCCHAAT
122.3190KIENEN Eric53BEL1:19:094:56 12.202058DEURNE (ANTWERPEN)
123.5954WELLENS Leo52BEL1:19:104:56 12.202062REKEM
124.7552VAN GORP Ludo52BEL1:19:134:56 12.192074EDEGEM
125.8835HERREBOUT Maarten50BEL1:19:164:56 12.182088SINT-JOOST-TEN-NODE
126.13736VAN REMOORTEL Jean53BEL1:19:194:56 12.182106BAZEL
127.12054WELLEKENS Eric50BEL1:19:204:56 12.172111WELLE
128.13282VAN VRACEM Herman51BEL1:19:214:56 12.172115HEMIKSEM
129.8046BAUSART Emmanuel54BEL1:19:234:56 12.172125S'GRAVENWEZEL
130.16498NIESINK Michel50BEL1:19:264:57 12.162140
131.9305VAN SWEEVELDT Herman53BEL1:19:274:57 12.162143BRASSCHAAT
132.18864DHOOGHE Hans50BEL1:19:304:57 12.152156HEUSDEN (O.-VL.)
133.18116WOUTERS Pierre50BEL1:19:314:57 12.152158KAPELLEN (ANTW.)
134.19558PLATINCK Ernst51BEL1:19:384:57 12.132194BAZEL
135.10649DEPLUVEREZ Paul53BEL1:19:434:58 12.122216SAINT-SAUVEUR
136.18105JANSEN Ernst50BEL1:19:484:58 12.102231RANST
137.10036HOSTE Gerrit50BEL1:19:484:58 12.102235LOKEREN
138.2562STAEPELS Ronny50BEL1:19:534:58 12.092259WUUSTWEZEL
139.2965HUYGENS Fons52BEL1:19:544:58 12.092263TREMELO
140.10253VANDEWALLE Johan50BEL1:19:564:58 12.082272EKEREN (ANTWERPEN)
141.2768DESTOMBES Patrick50BEL1:20:044:59 12.062305GIERLE
142.14948SCHELLENS Edwin54BEL1:20:074:59 12.062324
143.1519LAS Anton52NLD1:20:114:59 12.042343GEFFEN
144.3086VAN ROY Jan52BEL1:20:135:00 12.042352HEVER
145.1100VRINTS Bart53BEL1:20:155:00 12.042357DEURNE (ANTWERPEN)
146.16554PAULUSSEN Paul50BEL1:20:165:00 12.032363HOBOKEN (ANTWERPEN)
147.4350KIMPS Leo54BEL1:20:205:00 12.022384BILZEN
148.11944VAN HEST Marc52BEL1:20:205:00 12.022390TURNHOUT
149.13221MALFAIT Luc50BEL1:20:215:00 12.022394BRECHT
150.7954BEYENS Paul50BEL1:20:215:00 12.022395WOMMELGEM
151.6487VERHAEGHE Andre51BEL1:20:355:01 11.992456PUURS
152.2737VAN HOUTEN Eric52BEL1:20:425:01 11.972487TURNHOUT
153.11437LUYTS Emile51BEL1:20:425:01 11.972489WINKSELE
154.4527SMETS Leon50BEL1:20:445:01 11.962498ARENDONK
155.9320SOMERS Marc54BEL1:20:465:02 11.962505ANTWERPEN
156.16202VERGEYLE Herman50BEL1:20:465:02 11.962506
157.6274CORNELISSENS Ekke51BEL1:20:495:02 11.952517KAPELLEN (ANTW.)
158.10560VAN ROEY Herman53BEL1:20:505:02 11.952526SCHOTEN
159.11688VAN DE VEN Guido52BEL1:20:525:02 11.942533SINT-GILIS-WAAS
160.14275BERTELS Michel53BEL1:20:535:02 11.942538LICHTAART
161.16450CELIS Jef52BEL1:20:585:02 11.932557
162.14381VAN VLIERBERGHE Romain53BEL1:21:095:03 11.902593STEKENE
163.3498MERTENS Marc52BEL1:21:115:03 11.902604OELEGEM
164.18137DIERCKX Dirk51BEL1:21:125:03 11.892611ANTWERPEN 1
165.10715VERELST Jan50BEL1:21:145:03 11.892623SINT-AMANDS
166.5206RENIER Paul52BEL1:21:145:03 11.892628MORTSEL
167.7031DIERICKX Freddy51BEL1:21:165:03 11.882643DEURNE (ANTWERPEN)
168.18834VANDENBERGHE Andre53BEL1:21:195:04 11.882663SINT-AMANDSBERG
169.968HAEMHOUT Karel52BEL1:21:205:04 11.872676WILRIJK (ANTWERPEN)
170.7368KAIJDER Leo50NLD1:21:215:04 11.872681TERNEUZEN
171.9575GEBOERS Romi51BEL1:21:315:04 11.852725SCHILDE
172.13174DE SAEGER Dirk52BEL1:21:355:05 11.842751WILRIJK (ANTWERPEN)
173.18568VAN SPAENDONK Werner51BEL1:21:465:05 11.812809OOSTEEKLO
174.5341NYS Vincent50BEL1:22:065:06 11.762907DIEST
175.768VAN RIET Patrick54BEL1:22:095:07 11.762920MALLE
176.8317BAEYENS Ronny51BEL1:22:115:07 11.752931ERPE MERE
177.750SCHELDEMAN Pat50BEL1:22:145:07 11.752941ESSEN
178.16840JANSEN Bruno53BEL1:22:155:07 11.742951TIENEN
179.6299JANSE Luc51BEL1:22:225:08 11.722979HERSELT
180.18309LAUWERS Bert50BEL1:22:235:08 11.722983KAPELLEN (ANTW.)
181.10197THIJS Luc50BEL1:22:285:08 11.713014ANTWERPEN 5
182.8398PLOMPEN Paul53BEL1:22:305:08 11.713021MORTSEL
183.10308VERCAUTEREN Danny53BEL1:22:365:08 11.693044ANTWERPEN 1
184.15053GOVAERTS Frans52BEL1:22:455:09 11.673096
185.3075REEKERS Rob51BEL1:22:475:09 11.673114WAASMUNSTER
186.13493VERHEYLENWEGHEN Paul51BEL1:22:495:09 11.663118MERKSEM (ANTWERPEN)
187.16817MC GAHAN Hugh54BEL1:22:525:09 11.653132
188.756VAN CRAENENBROECK Johan52BEL1:22:525:09 11.653135DEURNE (ANTWERPEN)
189.6320STEVENS Joan50BEL1:22:545:10 11.653149AALTER
190.4326MOONS Herwig52BEL1:23:095:10 11.623199MOL
191.10322QUIRIJNEN Jan54BEL1:23:095:10 11.613202RANST
192.6334VANROBAEYS Eddy51BEL1:23:115:11 11.613207WAREGEM
193.5562ROTTIERS Marc53BEL1:23:145:11 11.603223WOMMELGEM
194.4190NEUBERG Claude52BEL1:23:145:11 11.603225HABAY-LA-NEUVE
195.2445VERDONCK Marc50BEL1:23:145:11 11.603226KONTICH
196.19101VAN EECKE Ivo54BEL1:23:155:11 11.603228SCHOTEN
197.1579ROBIJNS Ludo52BEL1:23:165:11 11.603234SCHELLE
DNF: abandon; DSQ: disqualifié; Vitesse en km/h
ChronoRace - Electronic Timing - www.chronorace.be